Fort Smith, AR

4:42 AM CST on February 22, 2017 (GMT -0600)
Fort Smith Regional

Weather History for KFSM - November, 2011

Change the Weather History Date:

Sunday, November 20, 2011

  Actual Average Record
Temperature  
Mean Temperature 55 °F 50 °F  
Max Temperature 64 °F 61 °F 82 °F (1989)
Min Temperature 46 °F 39 °F 18 °F (1914)
Degree Days  
Heating Degree Days 10 15  
Month to date heating degree days 166 234  
Since 1 July heating degree days 277 388  
Growing Degree Days 4 (Base 50)    
Moisture  
Dew Point 50 °F    
Average Humidity 81    
Maximum Humidity 97    
Minimum Humidity 64    
Precipitation  
Precipitation 0.61 in 0.15 in 1.53 in (1934)
Month to date precipitation 4.92 3.02  
Year to date precipitation 40.85 40.75  
Sea Level Pressure  
Sea Level Pressure 30.08 in    
Wind  
Wind Speed 8 mph (WSW)    
Max Wind Speed 21 mph    
Max Gust Speed 23 mph    
Visibility 7 miles    
Events Rain , Thunderstorm    
T = Trace of Precipitation, MM = Missing Value Source: NWS Daily Summary

Daily Weather History Graph

Daily Weather History Graph

Search for Another Location

Airport or City:

Trip Planner

Search our weather history database for the weather conditions in past years. The results will help you decide how hot, cold, wet, or windy it might be!

Date:

Astronomy

Nov. 20, 2011 Rise Set
Actual Time 6:57 AM CST 5:08 PM CST
Civil Twilight 6:29 AM CST 5:35 PM CST
Nautical Twilight 5:59 AM CST 6:06 PM CST
Astronomical Twilight 5:28 AM CST 6:37 PM CST
Moon 1:37 AM CST (11/20) 1:49 PM CST (11/20)
Length of Visible Light 11h 05m
Length of Day
10h 11m
Waning Crescent, 27% of the Moon is Illuminated
Nov 20
Waning Crescent
Nov 25
New
Dec 2
First Quarter
Dec 10
Full
Dec 17
Last Quarter

Hourly Weather History & Observations

Time (CST) Temp. Windchill Dew Point Humidity Pressure Visibility Wind Dir Wind Speed Gust Speed Precip Events Conditions
12:53 AM 63.0 °F - 57.9 °F 84% 29.95 in 10.0 mi ENE 5.8 mph - N/A   Overcast
1:53 AM 63.0 °F - 57.9 °F 84% 29.95 in 10.0 mi East 3.5 mph - N/A   Overcast
2:11 AM 62.6 °F - 57.2 °F 82% 29.96 in 10.0 mi Calm Calm - N/A   Overcast
2:53 AM 63.0 °F - 57.9 °F 84% 29.95 in 10.0 mi Calm Calm - N/A   Overcast
3:18 AM 62.6 °F - 57.2 °F 82% 29.95 in 5.0 mi NNE 3.5 mph - 0.00 in Rain Rain
3:53 AM 62.1 °F - 59.0 °F 90% 29.95 in 10.0 mi Calm Calm - 0.01 in   Mostly Cloudy
4:44 AM 62.6 °F - 59.0 °F 88% 29.97 in 7.0 mi North 3.5 mph - N/A   Mostly Cloudy
4:53 AM 63.0 °F - 59.0 °F 87% 29.96 in 8.0 mi Calm Calm - N/A   Mostly Cloudy
5:10 AM 62.6 °F - 59.0 °F 88% 29.98 in 8.0 mi Calm Calm - N/A   Mostly Cloudy
5:33 AM 62.6 °F - 59.0 °F 88% 29.98 in 8.0 mi Calm Calm - N/A   Overcast
5:53 AM 62.6 °F - 59.0 °F 88% 29.99 in 6.0 mi Calm Calm - N/A   Overcast
6:17 AM 60.8 °F - 59.0 °F 94% 30.00 in 5.0 mi Calm Calm - N/A   Scattered Clouds
6:53 AM 60.1 °F - 57.9 °F 93% 30.01 in 4.0 mi SW 3.5 mph - N/A   Mostly Cloudy
7:02 AM 60.8 °F - 59.0 °F 94% 30.02 in 4.0 mi SW 3.5 mph - N/A   Scattered Clouds
7:17 AM 60.8 °F - 57.2 °F 88% 30.02 in 2.5 mi WSW 3.5 mph - N/A   Scattered Clouds
7:53 AM 61.0 °F - 59.0 °F 93% 30.03 in 4.0 mi Calm Calm - N/A   Mostly Cloudy
8:29 AM 59.0 °F - 55.4 °F 88% 30.05 in 10.0 mi WSW 8.1 mph - N/A   Overcast
8:45 AM 59.0 °F - 55.4 °F 88% 30.06 in 10.0 mi West 9.2 mph - N/A   Mostly Cloudy
8:53 AM 60.1 °F - 55.9 °F 86% 30.06 in 10.0 mi West 10.4 mph - N/A   Mostly Cloudy
9:53 AM 62.6 °F - 51.8 °F 68% 30.08 in 10.0 mi West 11.5 mph - N/A   Mostly Cloudy
10:00 AM 62.6 °F - 51.8 °F 68% 30.08 in 10.0 mi West 11.5 mph - N/A   Partly Cloudy
10:53 AM 62.1 °F - 51.1 °F 67% 30.08 in 10.0 mi West 12.7 mph - N/A   Mostly Cloudy
11:53 AM 61.0 °F - 48.9 °F 64% 30.09 in 10.0 mi West 13.8 mph - N/A   Scattered Clouds
12:25 PM 59.0 °F - 48.2 °F 67% 30.08 in 10.0 mi WSW 15.0 mph - N/A   Mostly Cloudy
12:53 PM 57.0 °F - 46.9 °F 69% 30.07 in 10.0 mi West 12.7 mph - N/A   Overcast
1:53 PM 54.0 °F - 45.0 °F 72% 30.09 in 6.0 mi West 18.4 mph - N/A   Haze
2:53 PM 52.0 °F - 45.0 °F 77% 30.10 in 5.0 mi WSW 13.8 mph - N/A   Haze
3:53 PM 48.9 °F - 43.0 °F 80% 30.11 in 5.0 mi West 17.3 mph - N/A   Haze
4:53 PM 48.9 °F - 43.0 °F 80% 30.12 in 5.0 mi WSW 13.8 mph - N/A   Haze
5:53 PM 48.0 °F - 43.0 °F 83% 30.14 in 7.0 mi WSW 9.2 mph - N/A   Overcast
6:53 PM 48.0 °F - 42.1 °F 80% 30.18 in 7.0 mi WSW 10.4 mph - N/A   Overcast
7:53 PM 48.2 °F - 42.8 °F 82% 30.16 in 8.0 mi WSW 6.9 mph - N/A   Overcast
8:15 PM 48.2 °F - 42.8 °F 82% 30.14 in 9.0 mi WSW 5.8 mph - N/A   Overcast
8:53 PM 48.0 °F - 42.1 °F 80% 30.16 in 9.0 mi SSW 9.2 mph - N/A   Overcast
9:30 PM 48.2 °F - 42.8 °F 82% 30.14 in 9.0 mi WSW 11.5 mph - N/A Thunderstorm Thunderstorm
9:31 PM 48.2 °F - 42.8 °F 82% 30.15 in 9.0 mi WSW 12.7 mph - N/A Thunderstorm Thunderstorm
9:46 PM 46.4 °F 41.1 °F 42.8 °F 87% 30.17 in 2.5 mi SW 11.5 mph 23.0 mph 0.03 in Rain , Thunderstorm Heavy Thunderstorms and Rain
9:50 PM 46.4 °F 40.4 °F 44.6 °F 93% 30.17 in 1.0 mi SW 13.8 mph - N/A Rain , Thunderstorm Heavy Thunderstorms and Rain
9:53 PM 46.0 °F 41.0 °F 44.1 °F 93% 30.17 in 0.8 mi WSW 10.4 mph - 0.33 in Rain , Thunderstorm Heavy Thunderstorms and Rain
10:04 PM 46.4 °F 40.4 °F 44.6 °F 93% 30.18 in 1.8 mi West 13.8 mph - 0.21 in Rain , Thunderstorm Thunderstorms and Rain
10:08 PM 46.4 °F 40.7 °F 44.6 °F 93% 30.18 in 3.0 mi WSW 12.7 mph - 0.21 in Rain , Thunderstorm Light Thunderstorms and Rain
10:09 PM 46.4 °F 41.9 °F 44.6 °F 93% 30.18 in 3.0 mi WSW 9.2 mph 18.4 mph 0.21 in Rain Light Rain
10:10 PM 46.4 °F 42.4 °F 44.6 °F 93% 30.17 in 3.0 mi WSW 8.1 mph 18.4 mph 0.21 in Rain , Thunderstorm Thunderstorms and Rain
10:30 PM 46.4 °F 42.4 °F 46.4 °F 100% 30.17 in 4.0 mi WSW 8.1 mph - 0.25 in Rain Light Rain
10:53 PM 46.9 °F - 46.0 °F 97% 30.15 in 5.0 mi West 4.6 mph - 0.25 in Rain Light Rain
11:53 PM 46.9 °F - 46.0 °F 97% 30.14 in 5.0 mi West 8.1 mph - 0.02 in Rain Light Rain